This is the latest recevied weather packets stored in our database for station/object OE2SWM. If no packets are shown the sender has not sent any weather packets the latest 10 day(s).
| Time | Temp. | Humidity | Pressure | Rain* | Wind** | Luminosity | Snow |
|---|---|---|---|---|---|---|---|
| 1777497600 | 2.78° C | 77% | 975 hPa | 0 mm | - | - | - |
| 1777497000 | 2.78° C | 77% | 975 hPa | 0 mm | - | - | - |
| 1777496400 | 3.89° C | 76% | 975 hPa | 0 mm | - | - | - |
| 1777495800 | 3.89° C | 74% | 975 hPa | 0 mm | - | - | - |
| 1777495200 | 3.89° C | 73% | 975 hPa | 0 mm | - | - | - |
| 1777494600 | 5° C | 72% | 975 hPa | 0 mm | - | - | - |
| 1777494000 | 5° C | 70% | 975 hPa | 0 mm | - | - | - |
| 1777493400 | 5° C | 70% | 975 hPa | 0 mm | - | - | - |
| 1777492800 | 5.56° C | 66% | 975 hPa | 0 mm | - | - | - |
| 1777492200 | 6.67° C | 64% | 975 hPa | 0 mm | - | - | - |
| 1777491600 | 6.67° C | 61% | 975 hPa | 0 mm | - | - | - |
| 1777491000 | 6.67° C | 60% | 975 hPa | 0 mm | - | - | - |
| 1777490400 | 7.78° C | 57% | 975 hPa | 0 mm | - | - | - |
| 1777489800 | 7.78° C | 61% | 975 hPa | 0 mm | - | - | - |
| 1777489200 | 8.89° C | 61% | 974 hPa | 0 mm | - | - | - |
| 1777488600 | 8.89° C | 60% | 974 hPa | 0 mm | - | - | - |
| 1777488000 | 8.89° C | 63% | 974 hPa | 0 mm | - | - | - |
| 1777487400 | 8.89° C | 64% | 974 hPa | 0 mm | - | - | - |
| 1777486800 | 10° C | 63% | 974 hPa | 0 mm | - | - | - |
| 1777486200 | 10° C | 63% | 974 hPa | 0 mm | - | - | - |
| 1777485600 | 10° C | 66% | 973 hPa | 0 mm | - | - | - |
| 1777485000 | 10.56° C | 61% | 973 hPa | 0 mm | - | - | - |
| 1777484400 | 10.56° C | 61% | 973 hPa | 0 mm | - | - | - |
| 1777483800 | 10.56° C | 62% | 973 hPa | 0 mm | - | - | - |
| 1777483200 | 10.56° C | 63% | 973 hPa | 0 mm | - | - | - |
* Rain latest hour (hover to see other rain measurements)
** Current wind speed in m/s (hover to see current wind gust speed)